owner,sensor,date,latitude,longitude,air_pressure(mBar),qcFlag 
COMPS,ioos:station:USF.COMPS:TAR:1,2010-10-01T00:00:00Z,28.1560,-82.7580,1004.6,1111122 
COMPS,ioos:station:USF.COMPS:TAR:1,2010-10-01T00:06:00Z,28.1560,-82.7580,1004.72,1111122 
COMPS,ioos:station:USF.COMPS:TAR:1,2010-10-01T00:12:00Z,28.1560,-82.7580,1004.7,1111122 
COMPS,ioos:station:USF.COMPS:TAR:1,2010-10-01T00:18:00Z,28.1560,-82.7580,1004.85,1111122 
COMPS,ioos:station:USF.COMPS:TAR:1,2010-10-01T00:24:00Z,28.1560,-82.7580,1004.98,1111122 
COMPS,ioos:station:USF.COMPS:TAR:1,2010-10-01T00:30:00Z,28.1560,-82.7580,1005.02,1111122 
COMPS,ioos:station:USF.COMPS:TAR:1,2010-10-01T00:36:00Z,28.1560,-82.7580,1005.14,1111122 
COMPS,ioos:station:USF.COMPS:TAR:1,2010-10-01T00:42:00Z,28.1560,-82.7580,1005.3,1111122 
COMPS,ioos:station:USF.COMPS:TAR:1,2010-10-01T00:48:00Z,28.1560,-82.7580,1005.37,1111122 
COMPS,ioos:station:USF.COMPS:TAR:1,2010-10-01T00:54:00Z,28.1560,-82.7580,1005.45,1111122 
COMPS,ioos:station:USF.COMPS:TAR:1,2010-10-01T01:00:00Z,28.1560,-82.7580,1005.5,1111122 
COMPS,ioos:station:USF.COMPS:TAR:1,2010-10-01T01:06:00Z,28.1560,-82.7580,1005.64,1111122 
COMPS,ioos:station:USF.COMPS:TAR:1,2010-10-01T01:12:00Z,28.1560,-82.7580,1005.72,1111122 
COMPS,ioos:station:USF.COMPS:TAR:1,2010-10-01T01:18:00Z,28.1560,-82.7580,1005.81,1111122 
COMPS,ioos:station:USF.COMPS:TAR:1,2010-10-01T01:24:00Z,28.1560,-82.7580,1005.85,1111122 
COMPS,ioos:station:USF.COMPS:TAR:1,2010-10-01T01:30:00Z,28.1560,-82.7580,1005.98,1111122 
COMPS,ioos:station:USF.COMPS:TAR:1,2010-10-01T01:36:00Z,28.1560,-82.7580,1006.09,1111122 
COMPS,ioos:station:USF.COMPS:TAR:1,2010-10-01T01:42:00Z,28.1560,-82.7580,1006.1,1111122 
COMPS,ioos:station:USF.COMPS:TAR:1,2010-10-01T01:48:00Z,28.1560,-82.7580,1006.16,1111122 
COMPS,ioos:station:USF.COMPS:TAR:1,2010-10-01T01:54:00Z,28.1560,-82.7580,1006.2,1111122 
COMPS,ioos:station:USF.COMPS:TAR:1,2010-10-01T02:00:00Z,28.1560,-82.7580,1006.2,1111122 
COMPS,ioos:station:USF.COMPS:TAR:1,2010-10-01T02:06:00Z,28.1560,-82.7580,1006.25,1111122 
COMPS,ioos:station:USF.COMPS:TAR:1,2010-10-01T02:12:00Z,28.1560,-82.7580,1006.25,1111122 
COMPS,ioos:station:USF.COMPS:TAR:1,2010-10-01T02:18:00Z,28.1560,-82.7580,1006.42,1111122 
COMPS,ioos:station:USF.COMPS:TAR:1,2010-10-01T02:24:00Z,28.1560,-82.7580,1006.54,1111122 
COMPS,ioos:station:USF.COMPS:TAR:1,2010-10-01T02:30:00Z,28.1560,-82.7580,1006.61,1111122 
COMPS,ioos:station:USF.COMPS:TAR:1,2010-10-01T02:36:00Z,28.1560,-82.7580,1006.64,1111122 
COMPS,ioos:station:USF.COMPS:TAR:1,2010-10-01T02:42:00Z,28.1560,-82.7580,1006.73,1111122 
COMPS,ioos:station:USF.COMPS:TAR:1,2010-10-01T02:48:00Z,28.1560,-82.7580,1006.73,1111122 
COMPS,ioos:station:USF.COMPS:TAR:1,2010-10-01T02:54:00Z,28.1560,-82.7580,1006.73,1111122 
COMPS,ioos:station:USF.COMPS:TAR:1,2010-10-01T03:00:00Z,28.1560,-82.7580,1006.7,1111122 
COMPS,ioos:station:USF.COMPS:TAR:1,2010-10-01T03:06:00Z,28.1560,-82.7580,1006.81,1111122 
COMPS,ioos:station:USF.COMPS:TAR:1,2010-10-01T03:12:00Z,28.1560,-82.7580,1006.98,1111122 
COMPS,ioos:station:USF.COMPS:TAR:1,2010-10-01T03:18:00Z,28.1560,-82.7580,1006.97,1111122 
COMPS,ioos:station:USF.COMPS:TAR:1,2010-10-01T03:24:00Z,28.1560,-82.7580,1006.97,1111122 
COMPS,ioos:station:USF.COMPS:TAR:1,2010-10-01T03:30:00Z,28.1560,-82.7580,1006.97,1111122 
COMPS,ioos:station:USF.COMPS:TAR:1,2010-10-01T03:36:00Z,28.1560,-82.7580,1007.0,1111122 
COMPS,ioos:station:USF.COMPS:TAR:1,2010-10-01T03:42:00Z,28.1560,-82.7580,1007.06,1111122 
COMPS,ioos:station:USF.COMPS:TAR:1,2010-10-01T03:48:00Z,28.1560,-82.7580,1007.0,1111122 
COMPS,ioos:station:USF.COMPS:TAR:1,2010-10-01T03:54:00Z,28.1560,-82.7580,1006.93,1111122 
COMPS,ioos:station:USF.COMPS:TAR:1,2010-10-01T04:00:00Z,28.1560,-82.7580,1006.9,1111122 
COMPS,ioos:station:USF.COMPS:TAR:1,2010-10-01T04:06:00Z,28.1560,-82.7580,1006.98,1111122 
COMPS,ioos:station:USF.COMPS:TAR:1,2010-10-01T04:12:00Z,28.1560,-82.7580,1007.0,1111122 
COMPS,ioos:station:USF.COMPS:TAR:1,2010-10-01T04:18:00Z,28.1560,-82.7580,1006.94,1111122 
COMPS,ioos:station:USF.COMPS:TAR:1,2010-10-01T04:24:00Z,28.1560,-82.7580,1006.84,1111122 
COMPS,ioos:station:USF.COMPS:TAR:1,2010-10-01T04:30:00Z,28.1560,-82.7580,1006.9,1111122 
COMPS,ioos:station:USF.COMPS:TAR:1,2010-10-01T04:36:00Z,28.1560,-82.7580,1006.86,1111122 
COMPS,ioos:station:USF.COMPS:TAR:1,2010-10-01T04:42:00Z,28.1560,-82.7580,1006.85,1111122 
COMPS,ioos:station:USF.COMPS:TAR:1,2010-10-01T04:48:00Z,28.1560,-82.7580,1006.84,1111122 
COMPS,ioos:station:USF.COMPS:TAR:1,2010-10-01T04:54:00Z,28.1560,-82.7580,1006.82,1111122 
COMPS,ioos:station:USF.COMPS:TAR:1,2010-10-01T05:00:00Z,28.1560,-82.7580,1006.8,1111122 
COMPS,ioos:station:USF.COMPS:TAR:1,2010-10-01T05:06:00Z,28.1560,-82.7580,1006.76,1111122 
COMPS,ioos:station:USF.COMPS:TAR:1,2010-10-01T05:12:00Z,28.1560,-82.7580,1006.8,1111122 
COMPS,ioos:station:USF.COMPS:TAR:1,2010-10-01T05:18:00Z,28.1560,-82.7580,1006.76,1111122 
COMPS,ioos:station:USF.COMPS:TAR:1,2010-10-01T05:24:00Z,28.1560,-82.7580,1006.74,1111122 
COMPS,ioos:station:USF.COMPS:TAR:1,2010-10-01T05:30:00Z,28.1560,-82.7580,1006.64,1111122 
COMPS,ioos:station:USF.COMPS:TAR:1,2010-10-01T05:36:00Z,28.1560,-82.7580,1006.62,1111122 
COMPS,ioos:station:USF.COMPS:TAR:1,2010-10-01T05:42:00Z,28.1560,-82.7580,1006.64,1111122 
COMPS,ioos:station:USF.COMPS:TAR:1,2010-10-01T05:48:00Z,28.1560,-82.7580,1006.62,1111122 
COMPS,ioos:station:USF.COMPS:TAR:1,2010-10-01T05:54:00Z,28.1560,-82.7580,1006.61,1111122 
COMPS,ioos:station:USF.COMPS:TAR:1,2010-10-01T06:00:00Z,28.1560,-82.7580,1006.6,1111122 
COMPS,ioos:station:USF.COMPS:TAR:1,2010-10-01T06:06:00Z,28.1560,-82.7580,1006.61,1111122 
COMPS,ioos:station:USF.COMPS:TAR:1,2010-10-01T06:12:00Z,28.1560,-82.7580,1006.56,1111122 
COMPS,ioos:station:USF.COMPS:TAR:1,2010-10-01T06:18:00Z,28.1560,-82.7580,1006.5,1111122 
COMPS,ioos:station:USF.COMPS:TAR:1,2010-10-01T06:24:00Z,28.1560,-82.7580,1006.4,1111122 
COMPS,ioos:station:USF.COMPS:TAR:1,2010-10-01T06:30:00Z,28.1560,-82.7580,1006.28,1111122 
COMPS,ioos:station:USF.COMPS:TAR:1,2010-10-01T06:36:00Z,28.1560,-82.7580,1006.21,1111122 
COMPS,ioos:station:USF.COMPS:TAR:1,2010-10-01T06:42:00Z,28.1560,-82.7580,1006.04,1111122 
COMPS,ioos:station:USF.COMPS:TAR:1,2010-10-01T06:48:00Z,28.1560,-82.7580,1005.94,1111122 
COMPS,ioos:station:USF.COMPS:TAR:1,2010-10-01T06:54:00Z,28.1560,-82.7580,1005.94,1111122 
COMPS,ioos:station:USF.COMPS:TAR:1,2010-10-01T07:00:00Z,28.1560,-82.7580,1005.9,1111122 
COMPS,ioos:station:USF.COMPS:TAR:1,2010-10-01T07:06:00Z,28.1560,-82.7580,1005.81,1111122 
COMPS,ioos:station:USF.COMPS:TAR:1,2010-10-01T07:12:00Z,28.1560,-82.7580,1005.73,1111122 
COMPS,ioos:station:USF.COMPS:TAR:1,2010-10-01T07:18:00Z,28.1560,-82.7580,1005.69,1111122 
COMPS,ioos:station:USF.COMPS:TAR:1,2010-10-01T07:24:00Z,28.1560,-82.7580,1005.64,1111122 
COMPS,ioos:station:USF.COMPS:TAR:1,2010-10-01T07:30:00Z,28.1560,-82.7580,1005.65,1111122 
COMPS,ioos:station:USF.COMPS:TAR:1,2010-10-01T07:36:00Z,28.1560,-82.7580,1005.62,1111122 
COMPS,ioos:station:USF.COMPS:TAR:1,2010-10-01T07:42:00Z,28.1560,-82.7580,1005.62,1111122 
COMPS,ioos:station:USF.COMPS:TAR:1,2010-10-01T07:48:00Z,28.1560,-82.7580,1005.68,1111122 
COMPS,ioos:station:USF.COMPS:TAR:1,2010-10-01T07:54:00Z,28.1560,-82.7580,1005.64,1111122 
COMPS,ioos:station:USF.COMPS:TAR:1,2010-10-01T08:00:00Z,28.1560,-82.7580,1005.6,1111122 
COMPS,ioos:station:USF.COMPS:TAR:1,2010-10-01T09:00:00Z,28.1560,-82.7580,1005.4,1111122 
COMPS,ioos:station:USF.COMPS:TAR:1,2010-10-01T09:06:00Z,28.1560,-82.7580,1005.44,1111122 
COMPS,ioos:station:USF.COMPS:TAR:1,2010-10-01T09:12:00Z,28.1560,-82.7580,1005.46,1111122 
COMPS,ioos:station:USF.COMPS:TAR:1,2010-10-01T09:18:00Z,28.1560,-82.7580,1005.38,1111122 
COMPS,ioos:station:USF.COMPS:TAR:1,2010-10-01T09:24:00Z,28.1560,-82.7580,1005.44,1111122 
COMPS,ioos:station:USF.COMPS:TAR:1,2010-10-01T09:30:00Z,28.1560,-82.7580,1005.58,1111122 
COMPS,ioos:station:USF.COMPS:TAR:1,2010-10-01T09:36:00Z,28.1560,-82.7580,1005.62,1111122 
COMPS,ioos:station:USF.COMPS:TAR:1,2010-10-01T09:42:00Z,28.1560,-82.7580,1005.68,1111122 
COMPS,ioos:station:USF.COMPS:TAR:1,2010-10-01T09:48:00Z,28.1560,-82.7580,1005.73,1111122 
COMPS,ioos:station:USF.COMPS:TAR:1,2010-10-01T09:54:00Z,28.1560,-82.7580,1005.85,1111122 
COMPS,ioos:station:USF.COMPS:TAR:1,2010-10-01T10:00:00Z,28.1560,-82.7580,1005.9,1111122 
COMPS,ioos:station:USF.COMPS:TAR:1,2010-10-01T10:06:00Z,28.1560,-82.7580,1006.04,1111122 
COMPS,ioos:station:USF.COMPS:TAR:1,2010-10-01T10:12:00Z,28.1560,-82.7580,1006.05,1111122 
COMPS,ioos:station:USF.COMPS:TAR:1,2010-10-01T10:18:00Z,28.1560,-82.7580,1006.21,1111122 
COMPS,ioos:station:USF.COMPS:TAR:1,2010-10-01T10:24:00Z,28.1560,-82.7580,1006.22,1111122 
COMPS,ioos:station:USF.COMPS:TAR:1,2010-10-01T10:30:00Z,28.1560,-82.7580,1006.33,1111122 
COMPS,ioos:station:USF.COMPS:TAR:1,2010-10-01T10:36:00Z,28.1560,-82.7580,1006.37,1111122 
COMPS,ioos:station:USF.COMPS:TAR:1,2010-10-01T10:42:00Z,28.1560,-82.7580,1006.4,1111122 
COMPS,ioos:station:USF.COMPS:TAR:1,2010-10-01T10:48:00Z,28.1560,-82.7580,1006.5,1111122 
COMPS,ioos:station:USF.COMPS:TAR:1,2010-10-01T10:54:00Z,28.1560,-82.7580,1006.58,1111122 
COMPS,ioos:station:USF.COMPS:TAR:1,2010-10-01T11:00:00Z,28.1560,-82.7580,1006.6,1111122 
COMPS,ioos:station:USF.COMPS:TAR:1,2010-10-01T11:06:00Z,28.1560,-82.7580,1006.6,1111122 
COMPS,ioos:station:USF.COMPS:TAR:1,2010-10-01T11:12:00Z,28.1560,-82.7580,1006.6,1111122 
COMPS,ioos:station:USF.COMPS:TAR:1,2010-10-01T11:18:00Z,28.1560,-82.7580,1006.66,1111122 
COMPS,ioos:station:USF.COMPS:TAR:1,2010-10-01T11:24:00Z,28.1560,-82.7580,1006.65,1111122 
COMPS,ioos:station:USF.COMPS:TAR:1,2010-10-01T11:30:00Z,28.1560,-82.7580,1006.76,1111122 
COMPS,ioos:station:USF.COMPS:TAR:1,2010-10-01T11:36:00Z,28.1560,-82.7580,1006.89,1111122 
COMPS,ioos:station:USF.COMPS:TAR:1,2010-10-01T11:42:00Z,28.1560,-82.7580,1006.93,1111122 
COMPS,ioos:station:USF.COMPS:TAR:1,2010-10-01T11:48:00Z,28.1560,-82.7580,1007.05,1111122 
COMPS,ioos:station:USF.COMPS:TAR:1,2010-10-01T11:54:00Z,28.1560,-82.7580,1007.08,1111122 
COMPS,ioos:station:USF.COMPS:TAR:1,2010-10-01T12:00:00Z,28.1560,-82.7580,1007.1,1111122 
COMPS,ioos:station:USF.COMPS:TAR:1,2010-10-01T12:06:00Z,28.1560,-82.7580,1007.29,1111122 
COMPS,ioos:station:USF.COMPS:TAR:1,2010-10-01T12:12:00Z,28.1560,-82.7580,1007.34,1111122 
COMPS,ioos:station:USF.COMPS:TAR:1,2010-10-01T12:18:00Z,28.1560,-82.7580,1007.32,1111122 
COMPS,ioos:station:USF.COMPS:TAR:1,2010-10-01T12:24:00Z,28.1560,-82.7580,1007.44,1111122 
COMPS,ioos:station:USF.COMPS:TAR:1,2010-10-01T12:30:00Z,28.1560,-82.7580,1007.38,1111122 
COMPS,ioos:station:USF.COMPS:TAR:1,2010-10-01T12:36:00Z,28.1560,-82.7580,1007.33,1111122 
COMPS,ioos:station:USF.COMPS:TAR:1,2010-10-01T12:42:00Z,28.1560,-82.7580,1007.48,1111122 
COMPS,ioos:station:USF.COMPS:TAR:1,2010-10-01T12:48:00Z,28.1560,-82.7580,1007.6,1111122 
COMPS,ioos:station:USF.COMPS:TAR:1,2010-10-01T12:54:00Z,28.1560,-82.7580,1007.69,1111122 
COMPS,ioos:station:USF.COMPS:TAR:1,2010-10-01T13:00:00Z,28.1560,-82.7580,1007.7,1111122 
COMPS,ioos:station:USF.COMPS:TAR:1,2010-10-01T13:06:00Z,28.1560,-82.7580,1007.73,1111122 
COMPS,ioos:station:USF.COMPS:TAR:1,2010-10-01T13:12:00Z,28.1560,-82.7580,1007.82,1111122 
COMPS,ioos:station:USF.COMPS:TAR:1,2010-10-01T13:18:00Z,28.1560,-82.7580,1008.01,1111122 
COMPS,ioos:station:USF.COMPS:TAR:1,2010-10-01T13:24:00Z,28.1560,-82.7580,1008.04,1111122 
COMPS,ioos:station:USF.COMPS:TAR:1,2010-10-01T13:30:00Z,28.1560,-82.7580,1008.12,1111122 
COMPS,ioos:station:USF.COMPS:TAR:1,2010-10-01T13:36:00Z,28.1560,-82.7580,1008.1,1111122 
COMPS,ioos:station:USF.COMPS:TAR:1,2010-10-01T13:42:00Z,28.1560,-82.7580,1008.05,1111122 
COMPS,ioos:station:USF.COMPS:TAR:1,2010-10-01T13:48:00Z,28.1560,-82.7580,1008.0,1111122 
COMPS,ioos:station:USF.COMPS:TAR:1,2010-10-01T13:54:00Z,28.1560,-82.7580,1007.97,1111122 
COMPS,ioos:station:USF.COMPS:TAR:1,2010-10-01T14:00:00Z,28.1560,-82.7580,1008.0,1111122 
COMPS,ioos:station:USF.COMPS:TAR:1,2010-10-01T14:06:00Z,28.1560,-82.7580,1007.89,1111122 
COMPS,ioos:station:USF.COMPS:TAR:1,2010-10-01T14:12:00Z,28.1560,-82.7580,1007.82,1111122 
COMPS,ioos:station:USF.COMPS:TAR:1,2010-10-01T14:18:00Z,28.1560,-82.7580,1007.84,1111122 
COMPS,ioos:station:USF.COMPS:TAR:1,2010-10-01T14:24:00Z,28.1560,-82.7580,1007.86,1111122 
COMPS,ioos:station:USF.COMPS:TAR:1,2010-10-01T14:30:00Z,28.1560,-82.7580,1007.88,1111122 
COMPS,ioos:station:USF.COMPS:TAR:1,2010-10-01T14:36:00Z,28.1560,-82.7580,1007.88,1111122 
COMPS,ioos:station:USF.COMPS:TAR:1,2010-10-01T14:42:00Z,28.1560,-82.7580,1007.86,1111122 
COMPS,ioos:station:USF.COMPS:TAR:1,2010-10-01T14:48:00Z,28.1560,-82.7580,1007.85,1111122 
COMPS,ioos:station:USF.COMPS:TAR:1,2010-10-01T14:54:00Z,28.1560,-82.7580,1007.84,1111122 
COMPS,ioos:station:USF.COMPS:TAR:1,2010-10-01T15:00:00Z,28.1560,-82.7580,1007.8,1111122 
COMPS,ioos:station:USF.COMPS:TAR:1,2010-10-01T15:06:00Z,28.1560,-82.7580,1007.98,1111122 
COMPS,ioos:station:USF.COMPS:TAR:1,2010-10-01T15:12:00Z,28.1560,-82.7580,1008.01,1111122 
COMPS,ioos:station:USF.COMPS:TAR:1,2010-10-01T15:18:00Z,28.1560,-82.7580,1008.02,1111122 
COMPS,ioos:station:USF.COMPS:TAR:1,2010-10-01T15:24:00Z,28.1560,-82.7580,1008.02,1111122 
COMPS,ioos:station:USF.COMPS:TAR:1,2010-10-01T15:30:00Z,28.1560,-82.7580,1008.04,1111122 
COMPS,ioos:station:USF.COMPS:TAR:1,2010-10-01T15:36:00Z,28.1560,-82.7580,1008.0,1111122 
COMPS,ioos:station:USF.COMPS:TAR:1,2010-10-01T15:42:00Z,28.1560,-82.7580,1007.88,1111122 
COMPS,ioos:station:USF.COMPS:TAR:1,2010-10-01T15:48:00Z,28.1560,-82.7580,1007.82,1111122 
COMPS,ioos:station:USF.COMPS:TAR:1,2010-10-01T15:54:00Z,28.1560,-82.7580,1007.76,1111122 
COMPS,ioos:station:USF.COMPS:TAR:1,2010-10-01T16:00:00Z,28.1560,-82.7580,1007.8,1111122 
COMPS,ioos:station:USF.COMPS:TAR:1,2010-10-01T16:06:00Z,28.1560,-82.7580,1007.76,1111122 
COMPS,ioos:station:USF.COMPS:TAR:1,2010-10-01T16:12:00Z,28.1560,-82.7580,1007.74,1111122 
COMPS,ioos:station:USF.COMPS:TAR:1,2010-10-01T16:18:00Z,28.1560,-82.7580,1007.74,1111122 
COMPS,ioos:station:USF.COMPS:TAR:1,2010-10-01T16:24:00Z,28.1560,-82.7580,1007.76,1111122 
COMPS,ioos:station:USF.COMPS:TAR:1,2010-10-01T16:30:00Z,28.1560,-82.7580,1007.76,1111122 
COMPS,ioos:station:USF.COMPS:TAR:1,2010-10-01T16:36:00Z,28.1560,-82.7580,1007.73,1111122 
COMPS,ioos:station:USF.COMPS:TAR:1,2010-10-01T16:42:00Z,28.1560,-82.7580,1007.68,1111122 
COMPS,ioos:station:USF.COMPS:TAR:1,2010-10-01T16:48:00Z,28.1560,-82.7580,1007.56,1111122 
COMPS,ioos:station:USF.COMPS:TAR:1,2010-10-01T16:54:00Z,28.1560,-82.7580,1007.52,1111122 
COMPS,ioos:station:USF.COMPS:TAR:1,2010-10-01T17:00:00Z,28.1560,-82.7580,1007.5,1111122 
COMPS,ioos:station:USF.COMPS:TAR:1,2010-10-01T17:06:00Z,28.1560,-82.7580,1007.4,1111122 
COMPS,ioos:station:USF.COMPS:TAR:1,2010-10-01T17:12:00Z,28.1560,-82.7580,1007.37,1111122 
COMPS,ioos:station:USF.COMPS:TAR:1,2010-10-01T17:18:00Z,28.1560,-82.7580,1007.29,1111122 
COMPS,ioos:station:USF.COMPS:TAR:1,2010-10-01T17:24:00Z,28.1560,-82.7580,1007.29,1111122 
COMPS,ioos:station:USF.COMPS:TAR:1,2010-10-01T17:30:00Z,28.1560,-82.7580,1007.26,1111122 
COMPS,ioos:station:USF.COMPS:TAR:1,2010-10-01T17:36:00Z,28.1560,-82.7580,1007.17,1111122 
COMPS,ioos:station:USF.COMPS:TAR:1,2010-10-01T17:42:00Z,28.1560,-82.7580,1007.08,1111122 
COMPS,ioos:station:USF.COMPS:TAR:1,2010-10-01T17:48:00Z,28.1560,-82.7580,1007.04,1111122 
COMPS,ioos:station:USF.COMPS:TAR:1,2010-10-01T17:54:00Z,28.1560,-82.7580,1007.04,1111122 
COMPS,ioos:station:USF.COMPS:TAR:1,2010-10-01T18:00:00Z,28.1560,-82.7580,1007.0,1111122 
COMPS,ioos:station:USF.COMPS:TAR:1,2010-10-01T18:06:00Z,28.1560,-82.7580,1006.82,1111122 
COMPS,ioos:station:USF.COMPS:TAR:1,2010-10-01T18:12:00Z,28.1560,-82.7580,1006.8,1111122 
COMPS,ioos:station:USF.COMPS:TAR:1,2010-10-01T18:18:00Z,28.1560,-82.7580,1006.76,1111122 
COMPS,ioos:station:USF.COMPS:TAR:1,2010-10-01T18:24:00Z,28.1560,-82.7580,1006.68,1111122 
COMPS,ioos:station:USF.COMPS:TAR:1,2010-10-01T18:30:00Z,28.1560,-82.7580,1006.61,1111122 
COMPS,ioos:station:USF.COMPS:TAR:1,2010-10-01T18:36:00Z,28.1560,-82.7580,1006.53,1111122 
COMPS,ioos:station:USF.COMPS:TAR:1,2010-10-01T18:42:00Z,28.1560,-82.7580,1006.53,1111122 
COMPS,ioos:station:USF.COMPS:TAR:1,2010-10-01T18:48:00Z,28.1560,-82.7580,1006.6,1111122 
COMPS,ioos:station:USF.COMPS:TAR:1,2010-10-01T18:54:00Z,28.1560,-82.7580,1006.54,1111122 
COMPS,ioos:station:USF.COMPS:TAR:1,2010-10-01T19:00:00Z,28.1560,-82.7580,1006.5,1111122 
COMPS,ioos:station:USF.COMPS:TAR:1,2010-10-01T19:06:00Z,28.1560,-82.7580,1006.52,1111122 
COMPS,ioos:station:USF.COMPS:TAR:1,2010-10-01T19:12:00Z,28.1560,-82.7580,1006.45,1111122 
COMPS,ioos:station:USF.COMPS:TAR:1,2010-10-01T19:18:00Z,28.1560,-82.7580,1006.38,1111122 
COMPS,ioos:station:USF.COMPS:TAR:1,2010-10-01T19:24:00Z,28.1560,-82.7580,1006.25,1111122 
COMPS,ioos:station:USF.COMPS:TAR:1,2010-10-01T19:30:00Z,28.1560,-82.7580,1006.2,1111122 
COMPS,ioos:station:USF.COMPS:TAR:1,2010-10-01T19:36:00Z,28.1560,-82.7580,1006.1,1111122 
COMPS,ioos:station:USF.COMPS:TAR:1,2010-10-01T19:42:00Z,28.1560,-82.7580,1006.09,1111122 
COMPS,ioos:station:USF.COMPS:TAR:1,2010-10-01T19:48:00Z,28.1560,-82.7580,1006.14,1111122 
COMPS,ioos:station:USF.COMPS:TAR:1,2010-10-01T19:54:00Z,28.1560,-82.7580,1006.09,1111122 
COMPS,ioos:station:USF.COMPS:TAR:1,2010-10-01T20:00:00Z,28.1560,-82.7580,1006.1,1111122 
COMPS,ioos:station:USF.COMPS:TAR:1,2010-10-01T20:06:00Z,28.1560,-82.7580,1006.09,1111122 
COMPS,ioos:station:USF.COMPS:TAR:1,2010-10-01T20:12:00Z,28.1560,-82.7580,1006.06,1111122 
COMPS,ioos:station:USF.COMPS:TAR:1,2010-10-01T20:18:00Z,28.1560,-82.7580,1005.98,1111122 
COMPS,ioos:station:USF.COMPS:TAR:1,2010-10-01T20:24:00Z,28.1560,-82.7580,1005.94,1111122 
COMPS,ioos:station:USF.COMPS:TAR:1,2010-10-01T20:30:00Z,28.1560,-82.7580,1005.92,1111122 
COMPS,ioos:station:USF.COMPS:TAR:1,2010-10-01T20:36:00Z,28.1560,-82.7580,1005.92,1111122 
COMPS,ioos:station:USF.COMPS:TAR:1,2010-10-01T20:42:00Z,28.1560,-82.7580,1005.94,1111122 
COMPS,ioos:station:USF.COMPS:TAR:1,2010-10-01T20:48:00Z,28.1560,-82.7580,1005.94,1111122 
COMPS,ioos:station:USF.COMPS:TAR:1,2010-10-01T20:54:00Z,28.1560,-82.7580,1005.98,1111122 
COMPS,ioos:station:USF.COMPS:TAR:1,2010-10-01T21:00:00Z,28.1560,-82.7580,1006.0,1111122 
COMPS,ioos:station:USF.COMPS:TAR:1,2010-10-01T21:06:00Z,28.1560,-82.7580,1005.97,1111122 
COMPS,ioos:station:USF.COMPS:TAR:1,2010-10-01T21:12:00Z,28.1560,-82.7580,1006.01,1111122 
COMPS,ioos:station:USF.COMPS:TAR:1,2010-10-01T21:18:00Z,28.1560,-82.7580,1006.04,1111122 
COMPS,ioos:station:USF.COMPS:TAR:1,2010-10-01T21:24:00Z,28.1560,-82.7580,1006.02,1111122 
COMPS,ioos:station:USF.COMPS:TAR:1,2010-10-01T21:30:00Z,28.1560,-82.7580,1006.05,1111122 
COMPS,ioos:station:USF.COMPS:TAR:1,2010-10-01T21:36:00Z,28.1560,-82.7580,1006.09,1111122 
COMPS,ioos:station:USF.COMPS:TAR:1,2010-10-01T21:42:00Z,28.1560,-82.7580,1006.14,1111122 
COMPS,ioos:station:USF.COMPS:TAR:1,2010-10-01T21:48:00Z,28.1560,-82.7580,1006.18,1111122 
COMPS,ioos:station:USF.COMPS:TAR:1,2010-10-01T21:54:00Z,28.1560,-82.7580,1006.17,1111122 
COMPS,ioos:station:USF.COMPS:TAR:1,2010-10-01T22:00:00Z,28.1560,-82.7580,1006.2,1111122 
COMPS,ioos:station:USF.COMPS:TAR:1,2010-10-01T22:06:00Z,28.1560,-82.7580,1006.17,1111122 
COMPS,ioos:station:USF.COMPS:TAR:1,2010-10-01T22:12:00Z,28.1560,-82.7580,1006.21,1111122 
COMPS,ioos:station:USF.COMPS:TAR:1,2010-10-01T22:18:00Z,28.1560,-82.7580,1006.24,1111122 
COMPS,ioos:station:USF.COMPS:TAR:1,2010-10-01T22:24:00Z,28.1560,-82.7580,1006.34,1111122 
COMPS,ioos:station:USF.COMPS:TAR:1,2010-10-01T22:30:00Z,28.1560,-82.7580,1006.46,1111122 
COMPS,ioos:station:USF.COMPS:TAR:1,2010-10-01T22:36:00Z,28.1560,-82.7580,1006.48,1111122 
COMPS,ioos:station:USF.COMPS:TAR:1,2010-10-01T22:42:00Z,28.1560,-82.7580,1006.48,1111122 
COMPS,ioos:station:USF.COMPS:TAR:1,2010-10-01T22:48:00Z,28.1560,-82.7580,1006.5,1111122 
COMPS,ioos:station:USF.COMPS:TAR:1,2010-10-01T22:54:00Z,28.1560,-82.7580,1006.61,1111122 
COMPS,ioos:station:USF.COMPS:TAR:1,2010-10-01T23:00:00Z,28.1560,-82.7580,1006.6,1111122 
COMPS,ioos:station:USF.COMPS:TAR:1,2010-10-01T23:06:00Z,28.1560,-82.7580,1006.86,1111122 
COMPS,ioos:station:USF.COMPS:TAR:1,2010-10-01T23:12:00Z,28.1560,-82.7580,1006.92,1111122 
COMPS,ioos:station:USF.COMPS:TAR:1,2010-10-01T23:18:00Z,28.1560,-82.7580,1006.98,1111122 
COMPS,ioos:station:USF.COMPS:TAR:1,2010-10-01T23:24:00Z,28.1560,-82.7580,1007.05,1111122 
COMPS,ioos:station:USF.COMPS:TAR:1,2010-10-01T23:30:00Z,28.1560,-82.7580,1007.09,1111122 
COMPS,ioos:station:USF.COMPS:TAR:1,2010-10-01T23:36:00Z,28.1560,-82.7580,1007.18,1111122 
COMPS,ioos:station:USF.COMPS:TAR:1,2010-10-01T23:42:00Z,28.1560,-82.7580,1007.26,1111122 
COMPS,ioos:station:USF.COMPS:TAR:1,2010-10-01T23:48:00Z,28.1560,-82.7580,1007.3,1111122 
COMPS,ioos:station:USF.COMPS:TAR:1,2010-10-01T23:54:00Z,28.1560,-82.7580,1007.42,1111122 
COMPS,ioos:station:USF.COMPS:TAR:1,2010-10-02T00:00:00Z,28.1560,-82.7580,1007.4,1111122 
COMPS,ioos:station:USF.COMPS:TAR:1,2010-10-02T00:06:00Z,28.1560,-82.7580,1007.58,1111122 
COMPS,ioos:station:USF.COMPS:TAR:1,2010-10-02T00:12:00Z,28.1560,-82.7580,1007.66,1111122 
COMPS,ioos:station:USF.COMPS:TAR:1,2010-10-02T00:18:00Z,28.1560,-82.7580,1007.7,1111122 
COMPS,ioos:station:USF.COMPS:TAR:1,2010-10-02T00:24:00Z,28.1560,-82.7580,1007.7,1111122 
COMPS,ioos:station:USF.COMPS:TAR:1,2010-10-02T00:30:00Z,28.1560,-82.7580,1007.82,1111122 
COMPS,ioos:station:USF.COMPS:TAR:1,2010-10-02T00:36:00Z,28.1560,-82.7580,1007.89,1111122 
COMPS,ioos:station:USF.COMPS:TAR:1,2010-10-02T00:42:00Z,28.1560,-82.7580,1007.97,1111122 
COMPS,ioos:station:USF.COMPS:TAR:1,2010-10-02T00:48:00Z,28.1560,-82.7580,1008.0,1111122 
COMPS,ioos:station:USF.COMPS:TAR:1,2010-10-02T00:54:00Z,28.1560,-82.7580,1008.02,1111122 
COMPS,ioos:station:USF.COMPS:TAR:1,2010-10-02T01:00:00Z,28.1560,-82.7580,1008.0,1111122 
COMPS,ioos:station:USF.COMPS:TAR:1,2010-10-02T01:06:00Z,28.1560,-82.7580,1008.28,1111122 
COMPS,ioos:station:USF.COMPS:TAR:1,2010-10-02T01:12:00Z,28.1560,-82.7580,1008.28,1111122 
COMPS,ioos:station:USF.COMPS:TAR:1,2010-10-02T01:18:00Z,28.1560,-82.7580,1008.33,1111122 
COMPS,ioos:station:USF.COMPS:TAR:1,2010-10-02T01:24:00Z,28.1560,-82.7580,1008.38,1111122 
COMPS,ioos:station:USF.COMPS:TAR:1,2010-10-02T01:30:00Z,28.1560,-82.7580,1008.36,1111122 
COMPS,ioos:station:USF.COMPS:TAR:1,2010-10-02T01:36:00Z,28.1560,-82.7580,1008.29,1111122 
COMPS,ioos:station:USF.COMPS:TAR:1,2010-10-02T01:42:00Z,28.1560,-82.7580,1008.44,1111122 
COMPS,ioos:station:USF.COMPS:TAR:1,2010-10-02T01:48:00Z,28.1560,-82.7580,1008.41,1111122 
COMPS,ioos:station:USF.COMPS:TAR:1,2010-10-02T01:54:00Z,28.1560,-82.7580,1008.45,1111122 
COMPS,ioos:station:USF.COMPS:TAR:1,2010-10-02T02:00:00Z,28.1560,-82.7580,1008.5,1111122 
COMPS,ioos:station:USF.COMPS:TAR:1,2010-10-02T02:06:00Z,28.1560,-82.7580,1008.42,1111122 
COMPS,ioos:station:USF.COMPS:TAR:1,2010-10-02T02:12:00Z,28.1560,-82.7580,1008.46,1111122 
COMPS,ioos:station:USF.COMPS:TAR:1,2010-10-02T02:18:00Z,28.1560,-82.7580,1008.49,1111122 
COMPS,ioos:station:USF.COMPS:TAR:1,2010-10-02T02:24:00Z,28.1560,-82.7580,1008.49,1111122 
COMPS,ioos:station:USF.COMPS:TAR:1,2010-10-02T02:30:00Z,28.1560,-82.7580,1008.54,1111122 
COMPS,ioos:station:USF.COMPS:TAR:1,2010-10-02T02:36:00Z,28.1560,-82.7580,1008.58,1111122 
COMPS,ioos:station:USF.COMPS:TAR:1,2010-10-02T02:42:00Z,28.1560,-82.7580,1008.61,1111122 
COMPS,ioos:station:USF.COMPS:TAR:1,2010-10-02T02:48:00Z,28.1560,-82.7580,1008.6,1111122 
COMPS,ioos:station:USF.COMPS:TAR:1,2010-10-02T02:54:00Z,28.1560,-82.7580,1008.57,1111122 
COMPS,ioos:station:USF.COMPS:TAR:1,2010-10-02T03:00:00Z,28.1560,-82.7580,1008.6,1111122 
COMPS,ioos:station:USF.COMPS:TAR:1,2010-10-02T03:06:00Z,28.1560,-82.7580,1008.5,1111122 
COMPS,ioos:station:USF.COMPS:TAR:1,2010-10-02T03:12:00Z,28.1560,-82.7580,1008.49,1111122 
COMPS,ioos:station:USF.COMPS:TAR:1,2010-10-02T03:18:00Z,28.1560,-82.7580,1008.52,1111122 
COMPS,ioos:station:USF.COMPS:TAR:1,2010-10-02T03:24:00Z,28.1560,-82.7580,1008.49,1111122 